| time (UTC) | temp C | wind direction | speed KPH | gust KPH | rain 1hr cm | rain 24hr cm | rain mn cm | humidity % | barometer mb |
| 20260504081540 | 6 | 79 | 0.0 | 6.4 | 0.00 | 0.00 | 0.00 | 46 | 1010.6 |
| 20260504044536 | 6 | 0 | 0.0 | 0.0 | 0.00 | 0.00 | 0.00 | 42 | 1010.4 |
| 20260504043043 | 6 | 0 | 0.0 | 3.2 | 0.00 | 0.00 | 0.00 | 42 | 1010.6 |
| 20260504041544 | 6 | 0 | 0.0 | 0.0 | 0.00 | 0.00 | 0.00 | 41 | 1010.6 |
| 20260504040044 | 6 | 0 | 0.0 | 0.0 | 0.00 | 0.00 | 0.00 | 42 | 1010.2 |
| 20260504034544 | 6 | 0 | 0.0 | 1.6 | 0.00 | 0.00 | 0.00 | 42 | 1010.3 |
| 20260504033034 | 7 | 0 | 0.0 | 1.6 | 0.00 | 0.00 | 0.00 | 42 | 1010.2 |
| 20260504031535 | 7 | 261 | 0.0 | 3.2 | 0.00 | 0.00 | 0.00 | 41 | 1010.2 |
| 20260504030036 | 7 | 0 | 0.0 | 4.8 | 0.00 | 0.00 | 0.00 | 39 | 1010.1 |
| 20260504024540 | 7 | 0 | 0.0 | 4.8 | 0.00 | 0.00 | 0.00 | 38 | 1010.0 |
| 20260504023036 | 8 | 0 | 0.0 | 4.8 | 0.00 | 0.00 | 0.00 | 37 | 1010.0 |
| 20260504021539 | 8 | 248 | 0.0 | 4.8 | 0.00 | 0.00 | 0.00 | 36 | 1010.1 |
| 20260504020038 | 8 | 257 | 0.0 | 3.2 | 0.00 | 0.00 | 0.00 | 35 | 1010.0 |
| 20260504014537 | 8 | 0 | 1.6 | 11.3 | 0.00 | 0.00 | 0.00 | 34 | 1009.9 |
| 20260504013055 | 8 | 0 | 0.0 | 3.2 | 0.00 | 0.00 | 0.00 | 31 | 1009.8 |
| 20260504011539 | 8 | 284 | 0.0 | 4.8 | 0.00 | 0.00 | 0.00 | 30 | 1009.6 |
| 20260504010040 | 8 | 247 | 0.0 | 3.2 | 0.00 | 0.00 | 0.00 | 28 | 1009.3 |
| 20260504004535 | 8 | 0 | 0.0 | 9.7 | 0.00 | 0.00 | 0.00 | 27 | 1009.1 |
| 20260504003033 | 8 | 0 | 0.0 | 3.2 | 0.00 | 0.00 | 0.00 | 27 | 1009.0 |
| 20260504001543 | 9 | 0 | 0.0 | 6.4 | 0.00 | 0.00 | 0.00 | 26 | 1008.7 |
| 20260504000041 | 9 | 232 | 0.0 | 11.3 | 0.00 | 0.00 | 0.00 | 26 | 1008.5 |
| 20260503234535 | 10 | 274 | 0.0 | 4.8 | 0.00 | 0.00 | 0.00 | 24 | 1008.5 |
| 20260503233035 | 10 | 0 | 0.0 | 9.7 | 0.00 | 0.00 | 0.00 | 23 | 1008.2 |
| 20260503231534 | 10 | 276 | 1.6 | 9.7 | 0.00 | 0.00 | 0.00 | 22 | 1008.1 |
| 20260503230042 | 10 | 51 | 4.8 | 14.5 | 0.00 | 0.00 | 0.00 | 21 | 1008.0 |
| 20260503224540 | 10 | 14 | 1.6 | 14.5 | 0.00 | 0.00 | 0.00 | 21 | 1008.0 |
| 20260503223035 | 10 | 231 | 4.8 | 12.9 | 0.00 | 0.00 | 0.00 | 22 | 1008.0 |
| 20260503221535 | 10 | 248 | 1.6 | 9.7 | 0.00 | 0.00 | 0.00 | 25 | 1007.8 |
| 20260503220035 | 10 | 232 | 4.8 | 11.3 | 0.00 | 0.00 | 0.00 | 24 | 1007.9 |
| 20260503214539 | 10 | 55 | 8.0 | 19.3 | 0.00 | 0.00 | 0.00 | 23 | 1007.8 |
| 20260503213035 | 11 | 225 | 3.2 | 16.1 | 0.00 | 0.00 | 0.00 | 24 | 1007.9 |
| 20260503211539 | 10 | 38 | 6.4 | 19.3 | 0.00 | 0.00 | 0.00 | 24 | 1008.0 |
| 20260503210036 | 11 | 30 | 6.4 | 19.3 | 0.00 | 0.00 | 0.00 | 25 | 1007.6 |
| 20260503204534 | 10 | 87 | 1.6 | 24.1 | 0.00 | 0.00 | 0.00 | 26 | 1007.8 |
| 20260503203044 | 10 | 257 | 4.8 | 17.7 | 0.00 | 0.00 | 0.00 | 25 | 1007.9 |
| 20260503201534 | 10 | 253 | 4.8 | 14.5 | 0.00 | 0.00 | 0.00 | 25 | 1007.9 |
| 20260503200040 | 9 | 29 | 6.4 | 30.6 | 0.00 | 0.00 | 0.00 | 27 | 1008.0 |
| 20260503194538 | 8 | 46 | 6.4 | 30.6 | 0.00 | 0.00 | 0.00 | 28 | 1008.2 |
| 20260503193044 | 8 | 273 | 4.8 | 22.5 | 0.00 | 0.00 | 0.00 | 28 | 1008.3 |
| 20260503191601 | 9 | 324 | 4.8 | 19.3 | 0.00 | 0.00 | 0.00 | 27 | 1008.2 |
| 20260503190035 | 9 | 286 | 11.3 | 27.4 | 0.00 | 0.00 | 0.00 | 26 | 1008.3 |
| 20260503184540 | 10 | 240 | 4.8 | 19.3 | 0.00 | 0.00 | 0.00 | 27 | 1008.2 |
| 20260503183035 | 8 | 30 | 3.2 | 20.9 | 0.00 | 0.00 | 0.00 | 29 | 1008.3 |
| 20260503181548 | 9 | 243 | 8.0 | 22.5 | 0.00 | 0.00 | 0.00 | 26 | 1008.3 |
| 20260503180045 | 9 | 44 | 6.4 | 25.7 | 0.00 | 0.00 | 0.00 | 30 | 1008.2 |
| 20260503174547 | 9 | 58 | 4.8 | 27.4 | 0.00 | 0.00 | 0.00 | 28 | 1008.0 |
| 20260503173038 | 10 | 191 | 3.2 | 17.7 | 0.00 | 0.00 | 0.00 | 26 | 1007.9 |
| 20260503171534 | 8 | 278 | 3.2 | 19.3 | 0.00 | 0.00 | 0.00 | 28 | 1008.1 |